Location: Wien
(48.2082°N, 16.3738°E)
Time: 05:18:44
(UTC+01:00)

A-11 Canister half - Visible Passes

Search period start: 23 February 2024 00:00
Search period end: 04 March 2024 00:00
Orbit: 1526 x 1682 km, 47.3° (Epoch: 22 February)

Date Brightness Start Highest point End Pass type
(mag) Time Alt. Az. Time Alt. Az. Time Alt. Az.
23 Feb 10.0 02:51:58 31° SE 02:51:58 31° SE 02:56:23 10° SE visible
23 Feb 9.8 04:50:18 24° SW 04:50:49 24° SW 04:57:48 10° S visible
23 Feb 9.7 20:03:56 10° SSW 20:10:05 30° SSE 20:10:05 30° SSE visible
23 Feb 10.7 22:06:36 10° WSW 22:08:27 18° WSW 22:08:27 18° WSW visible
24 Feb 10.4 02:32:00 22° SE 02:32:00 22° SE 02:34:41 10° SE visible
24 Feb 9.9 04:30:20 25° SW 04:30:20 25° SW 04:36:20 10° S visible
24 Feb 9.6 19:42:22 10° SSW 19:50:19 31° SE 19:50:19 31° SE visible
24 Feb 10.2 21:44:53 10° WSW 21:48:40 28° SW 21:48:40 28° SW visible
25 Feb 10.8 02:12:06 14° SE 02:12:06 14° SE 02:13:00 10° SE visible
25 Feb 10.1 04:10:27 23° SSW 04:10:27 23° SSW 04:14:51 10° S visible
25 Feb 9.6 19:20:50 10° SSW 19:28:42 30° SE 19:30:29 28° ESE visible
25 Feb 9.6 21:23:10 10° SW 21:28:50 40° SW 21:28:50 40° SW visible
26 Feb 10.3 03:50:38 18° S 03:50:38 18° S 03:53:22 10° S visible
26 Feb 9.8 18:59:19 10° S 19:07:02 29° SE 19:10:35 23° ESE visible
26 Feb 9.2 21:01:27 10° SW 21:08:55 55° SSW 21:08:55 55° SSW visible
26 Feb 10.9 23:06:10 10° W 23:07:16 14° W 23:07:16 14° W visible
27 Feb 10.7 03:30:53 13° S 03:30:53 13° S 03:31:52 10° S visible
27 Feb 9.9 18:37:48 10° S 18:45:23 27° SE 18:50:36 17° E visible
27 Feb 8.9 20:39:45 10° SW 20:48:56 63° SSE 20:48:56 63° SSE visible
27 Feb 10.5 22:44:25 10° W 22:47:16 23° W 22:47:16 23° W visible
28 Feb 9.9 18:16:18 10° S 18:23:43 26° SE 18:30:32 11° E visible
28 Feb 8.9 20:18:03 10° SW 20:27:25 62° SSE 20:28:51 56° ESE visible
28 Feb 10.0 22:22:39 10° W 22:27:11 33° W 22:27:11 33° W visible
29 Feb 10.0 17:54:49 10° S 18:02:04 25° SE 18:09:10 10° E visible
29 Feb 9.0 19:56:21 10° SW 20:05:42 60° SSE 20:08:42 43° E visible
29 Feb 9.6 22:00:54 10° W 22:07:01 46° W 22:07:01 46° W visible
01 Mar 9.0 19:34:39 10° SW 19:43:59 58° SSE 19:48:28 33° E visible
01 Mar 9.1 21:39:08 10° W 21:46:47 63° WSW 21:46:47 63° WSW visible
01 Mar 10.9 23:44:14 10° W 23:45:06 13° W 23:45:06 13° W visible
02 Mar 9.1 19:12:57 10° SW 19:22:17 57° SSE 19:28:10 24° E visible
02 Mar 8.8 21:17:23 10° W 21:26:29 81° SW 21:26:29 81° SW visible
02 Mar 10.6 23:22:29 10° W 23:24:47 20° W 23:24:47 20° W visible
03 Mar 9.2 18:51:16 10° SW 19:00:35 55° SSE 19:07:49 17° E visible
03 Mar 8.7 20:55:37 10° W 21:05:12 84° S 21:06:07 75° ESE visible
03 Mar 10.3 23:00:44 10° W 23:04:26 27° W 23:04:26 27° W visible
